map of ALA home
Great Circle Mapper logo
ALA - Airport
Location
City:  Almaty, Alma Ata, Kazakhstan
Name:Almaty International Airport
ICAO / IATA:UAAA / ALA

Details
Type:Airport (Aerodrome, Airfield)
Use:Public/Civil, International (customs port of entry)
Latitude:4321'19"N (43.355278)
Longitude:7702'41"E (77.044722)
Elevation:2233 ft (681 m)
Runways:2
Longest:14764 × 148 ft (4500 × 45 m), paved

Time
Time Zone:UTC+6
Local Time:

Weather
METAR:UAAA 212030Z 08001MPS 2100 BR FEW033 SCT100 04/03 Q1024 R05L/CLRD65 R05R/1///60 TEMPO 0200 FG VV002
TAF:UAAA 211700Z 2118/2218 04005MPS 3000 BR FU SCT004 OVC007 TX19/2208Z TN04/2201Z
BECMG 2122/2123 VRB02MPS 1000
TEMPO 2122/2203 0200 FG VV001
BECMG 2204/2205 02006MPS 9999 NSW BKN100
TEMPO 2212/2218 1000 FU

Related Locations
Nearby:
Farthest:IPC: 11258 mi / 18117 km
Easter Island (Isla de Pascua, Rapa Nui) [Mataveri Intl], VS, CL

Find:

   beyond  
but within

Other Information
Maps:
NOTAMs:
Links:
Sources:

  
flag of Kazakhstan   

Sectional Chart

Flight Planning
at skyvector.com

Satellite Image

Google Maps Satellite View

 

Copyright © 2004-2014 Karl L. Swartz. All rights reserved.
The Great Circle Mapper name and logo are trademarks of the Great Circle Mapper.
All other trademarks mentioned herein belong to their respective owners.
Please see credits for attibutions and further copyright information.

  Follow gcmap on Facebook Follow gcmap on Twitter

hCard Microformat

Geo Microformat